Погода в Новополе

Украина / Житомирская область     50°26′27″N   28°27′42″E
темп.,
°C
ветер,
м/с
пор.,
м/с
влажн.,
%
обл.,
%
осадки,
мм/ч
давл.,
гПа
погр.,
м
27 июля, вт
вт2700:00+21ююв486315 0.0 1019171
03:00+18ююв357323 0.0 101977
06:00+18ююв487181 0.0 1018121
09:00+23ю5105812 0.0 1017364
12:00+27ююз7945100 0.0 10181297
15:00+22ю397147 0.2 1017252
18:00+28ююз57583 0.0 10151124
21:00+18зюз3795100 0.8 1016195
28 июля, ср
ср2800:00+19ююз41090100 0.7 1015163
03:00+19юз3791100 0.9 1014138
06:00+18зюз22955 1.3 101424
09:00+23сз34785 1.4 1015335
12:00+27зсз455835 0.0 10141270
15:00+29з4648100 0.0 10141719
18:00+28з34506 0.0 10121395
21:00+23зюз22622 0.1 101311
29 июля, чт
чт2900:00+19ююз4792100 1.0 1013108
03:00+19ююз388945 1.0 1012169
06:00+19з369070 1.3 1011162
09:00+22зюз24750 2.0 1011413
12:00+27з34625 0.0 1011961
15:00+29з56546 0.0 10101783
18:00+28з565943 0.1 10101560
21:00+22з487797 0.3 1011150
30 июля, пт
пт3000:00+20ссз228513 0.6 101212
03:00+19з228876 0.8 101213
06:00+20зсз2386100 0.0 101254
09:00+23зсз24700 0.0 1012283
12:00+27з23460 0.0 10121516
15:00+29зсз34423 0.0 10111974
18:00+28зсз234611 0.0 10101149
21:00+23ю116499 0.1 101011
31 июля, сб
сб3100:00+20зсз1282100 1.5 101030
03:00+19юз2285100 2.4 101036
06:00+17зсз22910 0.0 101018
09:00+22зсз22745 0.0 1010309
12:00+26з23585 0.0 10101021
15:00+28з33517 0.0 10091511
18:00+28зсз235176 0.0 10081341
21:00+22зсз2267100 0.0 100918